Location: Ar Ranvel
(48.3000°N, 4.8833°W)
Time: 09:16:48
(UTC+00:00)

Meteor 2-5 Rocket - Pass Details

Date: 16 June 2021
Orbit: 833 x 911 km, 81.2° (Epoch: 26 July)

Event Time Altitude Azimuth Distance (km) Brightness Sun altitude
Exits shadow 22:24:36 18° 171° (S) 1,930 5.0 -13.8°
Maximum altitude 22:28:39 61° 96° (E) 953 3.8 -14.1°
Drops below altitude 10° 22:34:10 10° 18° (NNE) 2,482 6.8 -14.5°
Sets 22:36:38 0° 15° (NNE) 3,432 7.7 -14.6°
